Time,TemperatureF,DewpointF,PressureIn,WindDirection,WindDirectionDegrees,WindSpeedMPH,WindSpeedGustMPH,Humidity,HourlyPrecipIn,Conditions,Clouds,dailyrainin,SoftwareType,DateUTC
2013-01-28 07:33:00,46.0,44.0,-100.00,WNW,300,5.0,16.0,95,-99.99,,,-99.99,,2013-01-28 13:33:00,
2013-01-28 07:42:00,46.0,44.0,-100.00,WNW,300,5.0,16.0,95,-99.99,,,-99.99,,2013-01-28 13:42:00,
2013-01-28 07:53:00,45.0,44.0,-100.00,West,280,9.0,14.0,95,-99.99,,,-99.99,,2013-01-28 13:53:00,
2013-01-28 08:03:00,45.0,44.0,-100.00,West,280,9.0,14.0,95,-99.99,,,-99.99,,2013-01-28 14:03:00,
2013-01-28 08:12:00,44.0,43.0,-100.00,WNW,295,7.0,16.0,95,-99.99,,,-99.99,,2013-01-28 14:12:00,
2013-01-28 08:22:00,44.0,42.0,-100.00,NW,305,7.0,14.0,95,-99.99,,,-99.99,,2013-01-28 14:22:00,
2013-01-28 08:33:00,44.0,42.0,-100.00,NW,305,7.0,14.0,95,-99.99,,,-99.99,,2013-01-28 14:33:00,
2013-01-28 08:43:00,42.0,41.0,-100.00,NW,325,5.0,16.0,95,-99.99,,,-99.99,,2013-01-28 14:43:00,
2013-01-28 08:53:00,42.0,40.0,-100.00,WNW,300,5.0,12.0,95,-99.99,,,-99.99,,2013-01-28 14:53:00,
2013-01-28 09:03:00,42.0,40.0,-100.00,WNW,300,5.0,12.0,95,-99.99,,,-99.99,,2013-01-28 15:03:00,
2013-01-28 09:12:00,41.0,40.0,-100.00,NW,315,8.0,14.0,95,-99.99,,,-99.99,,2013-01-28 15:12:00,
2013-01-28 09:23:00,41.0,39.0,-100.00,North,0,4.0,11.0,95,-99.99,,,-99.99,,2013-01-28 15:23:00,
2013-01-28 09:33:00,41.0,39.0,-100.00,North,0,4.0,11.0,95,-99.99,,,-99.99,,2013-01-28 15:33:00,
2013-01-28 09:43:00,40.0,39.0,-100.00,North,0,1.0,10.0,95,-99.99,,,-99.99,,2013-01-28 15:43:00,
2013-01-28 09:53:00,41.0,39.0,-100.00,North,0,4.0,9.0,95,-99.99,,,-99.99,,2013-01-28 15:53:00,
2013-01-28 10:04:00,41.0,39.0,-100.00,North,0,4.0,9.0,95,-99.99,,,-99.99,,2013-01-28 16:04:00,
2013-01-28 10:12:00,40.0,39.0,-100.00,NNW,335,4.0,11.0,95,-99.99,,,-99.99,,2013-01-28 16:12:00,
2013-01-28 10:22:00,40.0,39.0,-100.00,North,0,6.0,11.0,95,-99.99,,,-99.99,,2013-01-28 16:22:00,
2013-01-28 10:32:00,40.0,39.0,-100.00,North,0,6.0,11.0,95,-99.99,,,-99.99,,2013-01-28 16:32:00,
2013-01-28 10:43:00,40.0,39.0,-100.00,NNE,30,3.0,10.0,95,-99.99,,,-99.99,,2013-01-28 16:43:00,
2013-01-28 10:53:00,41.0,40.0,-100.00,NNW,340,0.0,6.0,95,-99.99,,,-99.99,,2013-01-28 16:53:00,
2013-01-28 11:02:00,41.0,40.0,-100.00,NNW,340,0.0,6.0,95,-99.99,,,-99.99,,2013-01-28 17:02:00,
2013-01-28 11:12:00,41.0,40.0,-100.00,NNW,340,0.0,6.0,95,-99.99,,,-99.99,,2013-01-28 17:12:00,
2013-01-28 11:23:00,41.0,40.0,-100.00,NNW,335,4.0,11.0,95,-99.99,,,-99.99,,2013-01-28 17:23:00,
2013-01-28 11:32:00,41.0,40.0,-100.00,NNW,335,4.0,11.0,95,-99.99,,,-99.99,,2013-01-28 17:32:00,
2013-01-28 11:42:00,41.0,40.0,-100.00,NW,315,6.0,10.0,95,-99.99,,,-99.99,,2013-01-28 17:42:00,
2013-01-28 11:53:00,42.0,40.0,-100.00,North,0,4.0,10.0,95,-99.99,,,-99.99,,2013-01-28 17:53:00,
2013-01-28 12:03:00,42.0,40.0,-100.00,North,0,4.0,10.0,95,-99.99,,,-99.99,,2013-01-28 18:03:00,
2013-01-28 12:12:00,42.0,40.0,-100.00,NW,310,6.0,11.0,94,-99.99,,,-99.99,,2013-01-28 18:12:00,
2013-01-28 12:23:00,43.0,42.0,-100.00,North,5,4.0,12.0,94,-99.99,,,-99.99,,2013-01-28 18:23:00,
2013-01-28 12:33:00,43.0,42.0,-100.00,North,5,4.0,12.0,94,-99.99,,,-99.99,,2013-01-28 18:33:00,
2013-01-28 12:42:00,42.0,41.0,-100.00,North,0,4.0,9.0,94,-99.99,,,-99.99,,2013-01-28 18:42:00,
2013-01-28 12:52:00,42.0,41.0,-100.00,North,350,1.0,7.0,94,-99.99,,,-99.99,,2013-01-28 18:52:00,
2013-01-28 13:02:00,42.0,41.0,-100.00,North,350,1.0,7.0,94,-99.99,,,-99.99,,2013-01-28 19:02:00,
2013-01-28 13:12:00,42.0,41.0,-100.00,WNW,295,4.0,9.0,94,-99.99,,,-99.99,,2013-01-28 19:12:00,
2013-01-28 13:22:00,43.0,41.0,-100.00,West,270,3.0,6.0,94,-99.99,,,-99.99,,2013-01-28 19:22:00,
2013-01-28 13:32:00,43.0,41.0,-100.00,West,270,3.0,6.0,94,-99.99,,,-99.99,,2013-01-28 19:32:00,
2013-01-28 13:42:00,44.0,42.0,-100.00,NW,325,2.0,5.0,93,-99.99,,,-99.99,,2013-01-28 19:42:00,
2013-01-28 13:52:00,45.0,43.0,-100.00,ENE,70,1.0,6.0,92,-99.99,,,-99.99,,2013-01-28 19:52:00,
2013-01-28 14:02:00,45.0,43.0,-100.00,ENE,70,1.0,6.0,92,-99.99,,,-99.99,,2013-01-28 20:02:00,
2013-01-28 14:12:00,46.0,43.0,-100.00,NNE,20,1.0,4.0,90,-99.99,,,-99.99,,2013-01-28 20:12:00,
2013-01-28 14:22:00,45.0,41.0,-100.00,SW,220,3.0,6.0,84,-99.99,,,-99.99,,2013-01-28 20:22:00,
2013-01-28 14:33:00,45.0,41.0,-100.00,SW,220,3.0,6.0,84,-99.99,,,-99.99,,2013-01-28 20:33:00,
2013-01-28 14:42:00,45.0,38.0,-100.00,WNW,290,2.0,4.0,77,-99.99,,,-99.99,,2013-01-28 20:42:00,
2013-01-28 14:53:00,45.0,38.0,-100.00,SW,230,2.0,6.0,75,-99.99,,,-99.99,,2013-01-28 20:53:00,
2013-01-28 15:03:00,45.0,38.0,-100.00,SW,230,2.0,6.0,75,-99.99,,,-99.99,,2013-01-28 21:03:00,
2013-01-28 15:12:00,45.0,37.0,-100.00,WNW,285,4.0,5.0,73,-99.99,,,-99.99,,2013-01-28 21:12:00,
2013-01-28 15:22:00,43.0,36.0,-100.00,WSW,245,2.0,6.0,75,-99.99,,,-99.99,,2013-01-28 21:22:00,
2013-01-28 15:33:00,43.0,36.0,-100.00,WSW,245,2.0,6.0,75,-99.99,,,-99.99,,2013-01-28 21:33:00,
2013-01-28 15:43:00,46.0,39.0,-100.00,SW,230,1.0,4.0,75,-99.99,,,-99.99,,2013-01-28 21:43:00,
2013-01-28 15:53:00,45.0,37.0,-100.00,WSW,245,1.0,4.0,74,-99.99,,,-99.99,,2013-01-28 21:53:00,
2013-01-28 16:02:00,45.0,37.0,-100.00,WSW,245,1.0,4.0,74,-99.99,,,-99.99,,2013-01-28 22:02:00,
2013-01-28 16:12:00,44.0,37.0,-100.00,SW,220,4.0,5.0,76,-99.99,,,-99.99,,2013-01-28 22:12:00,
2013-01-28 16:23:00,45.0,38.0,-100.00,East,95,1.0,6.0,76,-99.99,,,-99.99,,2013-01-28 22:23:00,
2013-01-28 16:32:00,45.0,38.0,-100.00,East,95,1.0,6.0,76,-99.99,,,-99.99,,2013-01-28 22:32:00,
2013-01-28 16:42:00,45.0,38.0,-100.00,East,95,1.0,6.0,76,-99.99,,,-99.99,,2013-01-28 22:42:00,
2013-01-28 16:52:00,43.0,36.0,-100.00,ENE,70,3.0,4.0,78,-99.99,,,-99.99,,2013-01-28 22:52:00,
2013-01-28 17:02:00,43.0,36.0,-100.00,ENE,70,3.0,4.0,78,-99.99,,,-99.99,,2013-01-28 23:02:00,
2013-01-28 17:12:00,42.0,36.0,-100.00,East,80,1.0,4.0,81,-99.99,,,-99.99,,2013-01-28 23:12:00,
2013-01-28 17:22:00,41.0,37.0,-100.00,East,100,2.0,4.0,83,-99.99,,,-99.99,,2013-01-28 23:22:00,
2013-01-28 17:32:00,41.0,36.0,-100.00,ESE,110,1.0,4.0,85,-99.99,,,-99.99,,2013-01-28 23:32:00,
2013-01-28 17:42:00,41.0,36.0,-100.00,ESE,110,1.0,4.0,85,-99.99,,,-99.99,,2013-01-28 23:42:00,
2013-01-28 17:53:00,39.0,36.0,-100.00,ESE,115,2.0,6.0,86,-99.99,,,-99.99,,2013-01-28 23:53:00,
2013-01-28 18:02:00,39.0,36.0,-100.00,ESE,115,2.0,6.0,86,-99.99,,,-99.99,,2013-01-29 00:02:00,
2013-01-28 18:12:00,39.0,36.0,-100.00,SE,140,2.0,4.0,88,-99.99,,,-99.99,,2013-01-29 00:12:00,
2013-01-28 18:22:00,39.0,36.0,-100.00,ESE,110,3.0,6.0,89,-99.99,,,-99.99,,2013-01-29 00:22:00,
2013-01-28 18:32:00,39.0,36.0,-100.00,ESE,110,3.0,6.0,89,-99.99,,,-99.99,,2013-01-29 00:32:00,
2013-01-28 18:42:00,39.0,36.0,-100.00,SE,135,2.0,4.0,89,-99.99,,,-99.99,,2013-01-29 00:42:00,
2013-01-28 18:52:00,39.0,36.0,-100.00,ENE,75,4.0,5.0,89,-99.99,,,-99.99,,2013-01-29 00:52:00,
2013-01-28 19:02:00,39.0,36.0,-100.00,ENE,75,4.0,5.0,89,-99.99,,,-99.99,,2013-01-29 01:02:00,
2013-01-28 19:12:00,39.0,37.0,-100.00,ESE,110,4.0,6.0,90,-99.99,,,-99.99,,2013-01-29 01:12:00,
2013-01-28 19:23:00,39.0,36.0,-100.00,ESE,105,3.0,6.0,90,-99.99,,,-99.99,,2013-01-29 01:23:00,
2013-01-28 19:32:00,39.0,36.0,-100.00,ESE,105,3.0,6.0,90,-99.99,,,-99.99,,2013-01-29 01:32:00,
2013-01-28 19:42:00,39.0,36.0,-100.00,ESE,115,4.0,7.0,91,-99.99,,,-99.99,,2013-01-29 01:42:00,
2013-01-28 19:53:00,39.0,36.0,-100.00,ESE,110,3.0,6.0,91,-99.99,,,-99.99,,2013-01-29 01:53:00,
2013-01-28 20:02:00,39.0,36.0,-100.00,ESE,110,3.0,6.0,91,-99.99,,,-99.99,,2013-01-29 02:02:00,
2013-01-28 20:12:00,39.0,36.0,-100.00,East,90,3.0,6.0,91,-99.99,,,-99.99,,2013-01-29 02:12:00,
2013-01-28 20:22:00,39.0,36.0,-100.00,East,95,4.0,6.0,91,-99.99,,,-99.99,,2013-01-29 02:22:00,
2013-01-28 20:33:00,39.0,36.0,-100.00,East,95,4.0,6.0,91,-99.99,,,-99.99,,2013-01-29 02:33:00,
2013-01-28 20:42:00,39.0,37.0,-100.00,ENE,75,4.0,7.0,92,-99.99,,,-99.99,,2013-01-29 02:42:00,
2013-01-28 20:53:00,39.0,37.0,-100.00,ESE,105,4.0,6.0,92,-99.99,,,-99.99,,2013-01-29 02:53:00,
2013-01-28 21:03:00,39.0,37.0,-100.00,ESE,105,4.0,6.0,92,-99.99,,,-99.99,,2013-01-29 03:03:00,
2013-01-28 21:12:00,39.0,37.0,-100.00,ESE,110,4.0,6.0,92,-99.99,,,-99.99,,2013-01-29 03:12:00,
2013-01-28 21:22:00,39.0,37.0,-100.00,East,95,4.0,8.0,92,-99.99,,,-99.99,,2013-01-29 03:22:00,
2013-01-28 21:32:00,39.0,37.0,-100.00,East,95,4.0,8.0,92,-99.99,,,-99.99,,2013-01-29 03:32:00,
2013-01-28 21:42:00,39.0,37.0,-100.00,ESE,105,4.0,7.0,92,-99.99,,,-99.99,,2013-01-29 03:42:00,
2013-01-28 21:53:00,39.0,37.0,-100.00,East,90,4.0,10.0,92,-99.99,,,-99.99,,2013-01-29 03:53:00,
2013-01-28 22:02:00,38.0,36.0,-100.00,ESE,115,5.0,9.0,92,-99.99,,,-99.99,,2013-01-29 04:02:00,
2013-01-28 22:11:00,38.0,36.0,-100.00,ESE,115,5.0,9.0,92,-99.99,,,-99.99,,2013-01-29 04:11:00,
2013-01-28 22:22:00,38.0,36.0,-100.00,ESE,105,4.0,9.0,92,-99.99,,,-99.99,,2013-01-29 04:22:00,
2013-01-28 22:32:00,38.0,36.0,-100.00,East,95,5.0,9.0,92,-99.99,,,-99.99,,2013-01-29 04:32:00,
2013-01-28 22:42:00,38.0,36.0,-100.00,East,95,5.0,9.0,92,-99.99,,,-99.99,,2013-01-29 04:42:00,
2013-01-28 22:52:00,38.0,36.0,-100.00,East,95,6.0,11.0,92,-99.99,,,-99.99,,2013-01-29 04:52:00,
2013-01-28 23:03:00,38.0,36.0,-100.00,East,95,6.0,11.0,92,-99.99,,,-99.99,,2013-01-29 05:03:00,
2013-01-28 23:12:00,38.0,37.0,-100.00,East,90,6.0,9.0,93,-99.99,,,-99.99,,2013-01-29 05:12:00,
2013-01-28 23:21:00,38.0,37.0,-100.00,ESE,110,5.0,9.0,93,-99.99,,,-99.99,,2013-01-29 05:21:00,
2013-01-28 23:32:00,38.0,37.0,-100.00,ESE,110,5.0,9.0,93,-99.99,,,-99.99,,2013-01-29 05:32:00,
2013-01-28 23:42:00,39.0,37.0,-100.00,ESE,110,4.0,12.0,93,-99.99,,,-99.99,,2013-01-29 05:42:00,
2013-01-28 23:52:00,39.0,37.0,-100.00,ESE,105,6.0,10.0,93,-99.99,,,-99.99,,2013-01-29 05:52:00,